sat.trackr.live / text

‹ back to catalog

AETHER-7

NORAD 67378 · 2026-004R

PAYLOAD ACTIVE UNKNOWN

§ Identity

Operator
Country
CA
Launch date
2026-01-11
Launch site
AFWTR
Launch vehicle
Mass (kg)
RCS (m²)

External: N2YO · Heavens-Above · Gunter

§ Orbital elements

Epoch: 2026-09-20T22:55:53.379552Z

Period
96.87 min
Inclination
97.8084°
Eccentricity
0.0003441
Mean motion
14.86490557 rev/d
Perigee alt
606.5 km
Apogee alt
611.3 km
Semi-major
6,987.0 km
B*
1.1459e-4
RAAN
260.6843°
Arg perigee
148.5567°
Mean anomaly
211.5855°
Rev number
3,750

§ Raw data

AETHER-71 67378U 26004R   26263.95547893  .00000960  00000+0  11459-3 0  99992 67378  97.8084 260.6843 0003441 148.5567 211.5855 14.86490557 37507

JSON: /api/v1/satellites/67378 · /tle

For live sub-satellite position, see the globe view (requires WebGL).

§ Visibility from observer

Set your observer location to see the next 7 days of passes ≥ 10°. The values pass through the URL so the page stays shareable.

No JS? Fill the form by hand. The geolocation button needs JavaScript.